GFSNW_con_3kmhel_201.txt.gz
Helicity
185 163 181 202 295 430 567 430 424 369 400 498 459 445 448 437 462 365 244 229 224 287 276 248 210 325 432 310 251 271 302 274 210 161 68 41 138 223 384 411 402 398 392 374
169 157 170 193 338 529 536 534 568 557 487 494 590 510 503 466 373 270 216 213 238 257 261 262 233 348 351 282 289 307 279 224 214 121 125 66 100 148 329 237 213 218 256 361
183 167 186 204 258 443 618 550 533 633 608 622 485 587 491 404 251 274 285 263 239 213 228 275 343 345 255 229 227 231 147 170 194 243 200 294 304 233 198 121 233 167 210 120
114 101 165 181 317 539 637 496 497 530 505 394 448 369 254 312 318 257 216 248 187 226 369 346 302 238 243 150 128 110 125 161 114 105 125 122 114 119 87 56 90 153 139 61
278 335 543 536 584 661 579 459 579 485 336 286 302 293 269 266 316 271 296 309 250 285 313 236 248 208 173 169 132 124 78 160 149 174 108 88 119 134 35 57 27 21 43 17
491 482 469 517 512 485 512 366 440 322 198 231 256 318 298 231 289 296 305 268 291 227 160 135 146 157 140 137 142 106 110 132 152 161 128 130 231 40 27 70 88 91 52 26
473 360 340 382 349 277 213 287 298 281 279 258 267 240 294 286 278 318 216 124 140 223 221 155 114 90 77 70 63 68 91 105 137 178 120 213 16 20 90 64 66 26 7 6
270 295 285 239 213 174 131 118 183 232 282 217 224 195 178 165 155 147 143 154 248 235 152 194 196 113 47 34 37 64 72 80 146 187 137 60 25 69 135 46 -4 49 29 53
287 283 206 151 122 116 142 183 177 189 240 183 181 135 124 143 133 178 176 310 167 114 160 173 231 239 206 263 172 39 31 81 88 54 85 88 25 55 79 -6 -28 190 15 123
197 180 181 172 149 135 132 156 153 177 216 204 146 149 130 99 148 168 160 153 122 118 190 203 178 178 116 239 146 72 68 99 87 90 103 103 34 129 5 -31 -20 -44 127 240
179 193 173 169 167 162 105 143 140 167 163 175 164 168 159 184 141 178 233 173 161 169 170 156 134 138 76 138 57 64 87 93 99 79 68 23 93 32 -38 -48 -22 61 263 280
145 140 142 146 151 140 99 144 94 98 168 171 95 109 133 177 192 163 189 124 147 87 106 93 87 82 90 75 111 28 58 61 69 26 -4 71 -25 -70 -79 -60 49 57 106 180
109 128 143 151 148 137 113 129 93 101 135 101 77 121 81 63 73 92 114 75 61 74 50 72 70 76 37 61 51 20 10 28 38 -10 -19 -46 -47 -58 -41 38 73 65 26 22
85 96 107 123 125 118 95 122 95 91 90 133 134 63 62 63 28 18 5 54 103 54 50 56 37 30 38 29 22 13 1 -16 -12 12 22 -25 -19 50 102 146 57 40 31 26
41 41 47 62 58 48 58 60 55 53 66 70 60 38 49 29 24 26 20 23 27 36 37 49 31 26 24 22 19 18 13 24 23 33 -0 12 158 155 167 51 43 27 21 36
-18 -18 -18 -15 -23 -48 -22 -9 4 10 6 -16 -17 23 14 18 20 19 27 23 11 4 27 36 4 14 -2 52 43 21 -15 -21 -23 38 20 38 165 125 48 23 23 7 -9 -19
-30 -25 -18 -29 -39 -48 -75 -80 -26 -4 -7 -43 -48 -1 29 22 14 21 20 29 27 -9 -0 44 31 6 14 54 63 40 24 -12 -10 -17 8 59 31 9 10 13 11 1 -5 -3
-6 -2 -18 -35 -32 -7 -31 -23 6 39 17 -1 -23 -3 40 39 56 63 72 60 19 22 26 30 31 12 23 15 -0 -9 -8 19 38 60 23 5 -9 3 5 8 2 -4 -2 7
-4 -15 -7 2 -1 -42 -39 30 47 41 9 -8 15 19 22 44 38 36 38 24 47 32 65 33 1 11 37 56 73 62 13 40 37 31 14 4 5 7 5 3 3 5 6 8
6 10 -28 -66 -42 10 14 2 -12 -11 1 11 19 12 26 31 35 8 -5 27 -3 6 37 -3 21 74 92 50 24 15 20 22 13 12 21 13 10 8 7 9 4 3 5 2
11 -11 -22 -21 5 2 -11 5 6 18 24 25 23 9 10 42 25 -16 26 -3 -2 4 32 10 12 9 53 41 22 32 37 27 22 23 23 20 17 15 18 20 20 19 16 17
-5 15 18 6 13 13 13 22 25 22 31 43 26 31 18 30 33 23 2 4 29 18 62 36 26 73 88 70 68 62 44 32 22 21 25 28 26 28 24 25 34 45 29 36
10 10 24 19 21 22 35 55 46 49 43 31 29 22 26 35 21 22 34 42 33 50 52 48 90 112 125 115 77 51 46 34 27 29 26 23 27 38 53 49 54 51 47 37
12 21 29 25 46 25 35 50 80 75 49 56 49 51 54 56 65 52 70 53 52 91 84 80 200 137 80 62 87 96 45 37 42 30 38 61 59 49 45 38 40 41 42 49
20 22 14 23 18 28 34 36 43 41 36 34 43 44 68 61 75 66 54 62 77 59 93 71 53 69 69 77 70 16 17 62 54 66 69 54 44 44 45 55 51 63 65 59
40 24 23 26 29 30 38 32 30 25 25 25 46 69 61 59 48 51 56 67 65 114 119 103 41 8 16 38 75 96 87 70 59 60 71 68 67 57 71 65 52 70 73 64
31 31 23 11 20 28 43 47 36 38 41 70 63 103 74 81 85 92 77 112 132 103 51 56 85 118 146 122 110 118 95 75 85 84 82 76 70 72 76 82 112 76 58 39

GFSNW_con_3kmhel_204.txt.gz
Helicity
149 163 151 165 162 271 375 294 370 335 343 486 520 484 483 428 384 510 439 404 357 357 382 427 337 309 333 363 260 182 367 342 309 203 93 48 155 216 226 393 472 474 496 516
152 191 209 196 259 353 307 379 455 436 488 538 544 575 593 546 534 491 418 354 270 297 332 347 220 265 369 359 265 358 398 273 343 233 167 171 273 316 262 324 354 438 427 463
189 200 195 188 224 309 477 333 430 586 589 641 633 568 535 621 574 581 466 343 362 344 296 225 283 268 287 280 299 405 347 305 259 327 215 264 293 283 254 252 395 314 272 204
144 186 167 197 174 328 403 438 461 503 483 484 603 562 481 504 546 307 216 284 263 279 292 216 254 265 313 231 236 225 257 318 206 170 184 204 204 213 207 229 160 164 129 70
88 102 123 209 322 481 459 378 461 577 555 494 376 519 429 368 357 279 271 286 175 118 274 235 307 296 307 298 187 113 92 176 136 205 155 152 191 166 91 46 14 39 34 83
215 252 297 460 489 573 555 575 517 526 393 308 331 334 241 242 332 217 223 150 252 289 228 223 196 213 181 181 190 177 169 218 216 250 161 175 320 148 38 -23 63 43 153 115
343 363 408 426 403 327 344 410 446 392 335 345 330 263 219 266 202 279 235 260 320 292 191 186 156 146 144 138 127 136 152 169 197 232 175 341 143 -3 -14 157 86 133 155 94
439 478 460 365 326 311 327 356 346 399 483 344 284 245 215 194 210 287 235 169 274 167 206 254 235 150 87 38 31 49 65 95 171 236 189 105 26 -3 165 150 79 206 124 56
460 384 341 358 327 310 327 269 160 256 325 245 192 202 203 243 236 209 252 318 310 194 233 215 250 240 278 252 227 -27 -5 104 111 69 121 125 -26 127 40 48 68 210 -60 -81
301 306 324 355 303 191 176 222 175 176 277 361 307 233 169 132 149 149 83 261 166 125 229 217 212 194 114 207 142 72 108 122 142 138 182 123 92 83 44 71 113 21 -59 -105
278 276 266 249 245 229 140 181 159 170 261 213 236 234 273 261 202 206 291 255 156 150 203 225 190 182 104 126 95 112 108 131 146 112 122 112 130 101 53 0 -97 -43 -89 -50
236 227 207 197 192 165 99 170 113 173 207 150 129 161 219 318 272 228 263 200 200 93 129 113 89 76 89 75 79 57 90 74 117 106 96 67 45 -23 -166 -152 -63 -54 -24 66
185 179 174 172 167 163 122 147 118 113 142 120 136 153 103 103 127 139 188 89 81 105 92 90 69 66 65 75 60 75 63 48 73 71 62 21 -61 -80 -59 -54 -52 3 89 19
145 163 170 167 160 125 111 170 132 99 106 175 112 32 44 43 33 41 57 129 106 123 105 57 42 22 45 41 32 27 34 23 0 -38 -59 -55 -43 -80 -71 -39 39 83 29 -3
142 153 152 134 128 105 69 74 78 84 66 81 35 2 24 15 22 22 25 41 56 49 41 28 27 19 50 13 28 36 31 -8 -8 43 -5 -32 -28 -20 55 88 79 25 17 14
57 44 35 26 25 1 -46 -37 -33 -18 -14 -62 -61 7 3 15 16 25 24 21 29 26 29 40 44 -7 -19 5 52 15 -29 2 -40 7 30 22 64 88 70 14 7 14 23 13
-33 -28 -28 -24 -40 -24 -115 -96 -70 -48 -31 -58 -58 8 24 32 41 46 40 41 34 17 13 17 10 -3 -24 -3 93 63 26 -16 -36 -18 -33 -2 15 8 -2 4 4 2 -10 11
-38 -43 -39 -30 -3 -13 -60 -47 -44 -33 -48 -32 -40 -7 28 41 47 69 64 79 17 19 34 20 18 0 8 59 22 5 5 25 3 -12 -23 -8 -4 3 14 12 8 4 3 1
-30 -27 -26 -15 -43 -73 -53 -46 -28 45 -23 -43 -25 -21 8 47 51 59 48 12 58 1 11 16 23 20 88 46 39 27 14 -1 -11 18 17 15 17 23 25 22 21 11 6 7
-26 -40 -51 -53 -40 -23 -26 -39 -31 -13 -14 -7 -2 17 29 33 47 44 51 67 39 46 84 63 105 110 67 37 8 20 79 70 29 43 46 36 31 28 23 21 15 10 9 7
-28 -25 -11 -17 -20 -21 -11 -3 -1 20 21 20 14 34 31 41 33 32 42 50 52 36 66 66 47 34 73 91 99 80 66 52 47 42 42 37 23 24 24 13 18 34 41 47
-7 -1 6 -1 2 16 19 22 25 18 51 44 45 52 41 42 43 36 40 51 55 33 90 71 60 90 177 168 153 87 58 30 38 25 32 29 11 16 34 45 51 61 46 47
-2 14 23 22 35 42 49 76 57 74 70 60 57 47 51 50 49 57 59 82 77 73 88 94 98 208 207 162 124 87 64 64 52 44 29 24 29 61 78 59 67 56 41 39
9 20 32 24 46 24 44 69 67 68 75 77 61 51 56 59 79 70 92 74 58 80 94 111 145 139 118 58 36 42 89 115 90 73 87 83 69 48 41 40 47 46 40 45
15 24 24 29 21 31 33 34 47 43 37 34 36 39 52 71 72 85 60 71 68 66 99 78 34 13 38 51 60 54 65 52 67 80 79 73 53 58 52 47 57 41 52 50
17 19 24 17 28 24 24 22 16 5 12 27 34 73 81 81 76 94 86 90 100 146 151 176 122 30 33 53 75 80 90 91 87 90 104 96 88 57 55 57 71 83 52 63
13 21 16 8 14 11 20 40 15 -2 12 59 60 109 114 114 123 132 122 142 157 131 107 59 10 -7 22 56 83 80 83 85 87 104 129 108 77 69 63 71 112 110 77 68

GFSNW_con_3kmhel_207.txt.gz
Helicity
139 141 191 176 184 232 326 285 291 236 282 348 393 426 448 445 434 461 409 416 396 359 402 423 388 302 269 376 358 327 399 330 346 251 141 110 246 298 332 466 508 506 554 577
121 171 149 150 264 364 395 292 348 301 355 335 390 478 421 457 413 462 428 460 405 443 448 376 268 319 426 340 291 337 264 300 364 235 202 202 406 408 360 346 454 532 628 670
183 106 129 165 261 422 557 448 347 459 471 365 451 464 475 560 574 596 597 542 484 396 354 316 345 343 260 303 344 388 396 426 389 369 347 306 316 233 260 316 394 373 323 196
168 127 115 176 276 460 582 361 347 267 259 274 485 509 424 454 545 494 436 384 351 381 333 360 373 309 341 287 315 311 331 374 291 265 259 258 254 264 283 259 230 261 180 174
141 106 121 166 201 318 371 366 352 359 337 373 268 436 480 487 529 452 389 384 255 237 396 365 392 378 403 440 327 318 295 355 267 294 189 135 177 201 161 129 85 128 159 176
146 131 137 157 255 382 292 365 390 391 359 431 472 502 417 345 434 267 320 260 355 329 239 283 319 318 308 304 327 308 290 300 313 332 166 174 394 263 142 88 86 115 165 204
134 95 135 192 314 431 333 411 442 427 405 381 354 323 246 267 300 382 291 297 359 285 234 274 286 233 195 187 192 165 213 199 241 245 222 361 242 64 83 119 152 184 76 49
253 262 283 241 377 388 396 364 322 316 320 309 321 284 313 278 249 327 340 309 219 159 259 287 325 294 218 112 11 79 121 161 279 305 264 214 89 90 124 130 102 135 74 73
285 354 420 362 355 383 386 331 247 285 298 282 304 328 296 384 369 355 316 250 175 180 221 229 334 344 271 168 312 188 112 140 232 257 311 303 166 147 93 114 66 111 29 2
410 373 340 414 369 362 349 336 274 330 385 443 297 390 299 214 200 219 245 191 189 189 210 216 208 233 232 297 291 234 236 207 204 201 258 244 195 131 43 54 56 70 14 -139
375 430 386 331 283 205 239 270 231 221 299 320 295 250 233 197 156 202 240 247 269 270 260 253 210 240 185 213 147 141 125 128 157 84 145 153 8 5 66 14 69 25 -130 -106
316 317 335 303 225 187 220 250 155 147 195 172 156 186 243 281 249 272 242 272 206 171 176 142 153 178 106 86 134 81 123 123 119 87 105 73 53 37 60 57 -64 -189 -133 -59
255 271 263 243 188 149 112 182 177 195 240 212 215 207 142 142 161 174 229 182 200 187 131 110 74 73 73 65 59 66 39 41 66 107 68 67 57 40 -122 -169 -171 -112 -60 -18
246 264 300 270 200 220 228 256 178 208 203 252 164 20 75 59 65 93 144 168 142 132 118 104 80 74 57 60 57 34 55 35 32 26 -34 -63 -66 -75 -106 -97 -66 -21 7 -7
261 310 295 272 230 205 227 253 248 190 132 143 39 -10 -23 -4 11 28 52 67 76 74 80 79 70 56 62 71 64 65 58 54 65 68 9 -3 11 -7 -46 -45 48 29 -22 -4
262 256 240 205 169 117 159 192 80 129 102 -35 -3 -44 -14 -9 1 20 30 40 49 61 86 75 72 77 62 53 58 68 -2 -14 -2 11 -24 -12 25 -22 35 29 10 2 -0 10
134 138 103 38 43 42 20 -34 -82 -29 -7 -29 -31 -20 -20 15 10 8 20 34 37 47 28 48 52 27 95 151 161 114 43 59 -34 87 -46 -25 -24 -4 -12 10 -6 10 22 13
-23 -22 -16 -18 -26 -15 -12 -18 -38 -18 -28 -22 -20 -12 7 5 15 30 49 56 58 52 55 48 66 47 110 64 49 53 46 41 102 38 -9 10 -11 10 28 21 29 27 18 4
-35 -22 -33 -38 -30 -26 -35 -49 -37 -15 -20 -17 -13 -2 6 13 30 54 38 54 46 48 73 84 81 66 78 69 43 23 57 81 73 34 57 64 63 47 37 29 23 18 8 8
-59 -61 -36 -39 -39 -47 -39 -31 -22 -20 -13 -1 16 14 25 39 44 25 44 49 27 40 35 77 62 86 158 107 42 86 85 122 88 65 69 60 59 47 32 15 11 25 40 64
-48 -36 -14 -32 -22 -11 -11 2 18 14 28 20 12 44 55 32 55 46 55 54 49 53 40 71 63 66 52 96 193 222 151 91 72 77 75 66 49 37 37 36 49 78 70 43
-5 -0 -3 -6 -7 11 36 36 31 36 41 34 65 54 55 54 67 62 54 70 92 62 116 101 95 81 236 373 231 109 88 97 92 74 58 51 39 51 74 93 93 78 72 70
9 13 29 28 22 45 47 53 52 73 79 68 67 71 78 78 77 67 69 86 76 80 132 121 130 176 261 280 210 121 82 84 67 84 100 91 97 119 103 75 71 75 60 50
1 6 28 14 23 11 41 52 74 65 91 80 64 64 60 51 68 63 75 72 81 105 110 121 128 114 58 22 41 25 56 80 82 90 97 75 83 74 67 63 58 62 61 53
5 7 18 23 14 28 27 33 62 66 59 49 57 56 76 78 88 90 93 84 75 86 109 98 91 49 2 24 36 41 55 70 96 116 125 137 124 90 71 80 97 107 101 78
5 7 19 8 25 13 18 17 24 24 44 36 63 79 93 91 90 123 98 113 134 133 113 102 95 110 15 47 88 75 41 12 58 98 116 118 114 91 88 91 117 117 113 98
4 15 19 27 33 21 19 17 39 43 58 89 93 120 99 116 125 129 101 150 93 101 100 89 89 88 50 37 41 84 66 100 127 123 136 131 105 98 112 125 109 69 93 109

GFSNW_con_3kmhel_210.txt.gz
Helicity
158 150 147 163 194 195 223 257 296 283 315 379 452 340 285 326 290 269 258 305 288 249 332 345 315 380 312 369 326 321 400 392 411 336 310 235 368 392 442 584 609 670 720 690
183 172 167 184 238 275 354 374 381 384 363 422 477 325 318 336 339 338 352 361 373 412 441 379 376 342 405 354 351 341 362 403 401 352 306 278 381 464 516 481 501 496 522 671
146 167 184 224 238 227 435 463 391 486 482 484 353 370 334 326 270 338 431 419 431 514 480 455 421 356 311 312 359 379 396 532 553 400 459 425 467 373 359 305 363 326 341 194
132 159 182 187 175 287 432 493 422 299 349 420 479 429 308 247 220 272 332 324 389 415 352 348 360 373 369 339 341 375 465 506 435 332 325 341 305 292 251 273 225 244 176 159
163 235 190 206 246 395 515 265 335 350 382 355 351 304 267 263 309 303 336 348 235 235 318 316 295 277 316 327 278 422 447 450 389 344 281 253 287 236 189 127 121 140 155 188
139 122 153 208 330 409 334 355 292 291 274 362 417 364 322 230 314 243 291 216 235 244 250 336 400 352 322 327 368 358 375 393 431 456 274 192 366 174 93 125 125 192 258 212
195 148 163 221 220 272 318 329 296 249 268 280 255 235 224 223 205 262 242 249 283 352 303 308 271 270 265 292 294 252 302 235 199 328 231 432 235 82 118 140 166 168 134 103
157 170 140 131 311 462 410 411 351 251 190 249 291 270 277 238 229 307 358 364 309 238 251 318 342 301 248 178 91 125 129 160 251 342 275 272 215 113 160 160 123 97 68 37
131 146 228 381 452 377 425 327 299 316 272 241 245 253 239 292 348 397 351 234 161 144 228 250 307 329 330 335 364 290 254 234 358 365 451 470 257 197 208 216 98 84 72 38
259 299 329 371 367 391 438 406 360 322 269 265 220 287 268 279 287 318 218 206 189 187 256 289 271 293 250 347 349 329 297 269 286 266 286 212 242 225 62 113 80 28 56 50
245 282 313 340 305 267 354 345 280 231 305 325 255 225 182 156 171 242 165 280 231 270 283 263 231 277 236 245 190 165 198 180 177 130 155 155 9 50 59 42 69 72 66 41
314 316 314 274 248 280 282 263 224 233 337 266 199 205 181 167 116 167 168 169 167 154 218 161 160 188 131 99 120 73 146 163 138 118 140 91 64 102 93 118 120 96 90 -90
338 283 210 214 190 251 275 314 240 297 293 309 230 250 188 164 177 113 202 163 119 108 77 80 73 78 90 93 67 69 70 70 111 117 92 73 24 -61 -64 -64 -54 -76 -48 -27
351 317 353 377 392 352 341 363 210 195 207 247 236 100 126 80 112 105 86 127 139 139 107 91 86 81 64 49 56 44 51 31 77 60 51 32 5 -2 -2 35 20 -9 4 -7
373 344 314 288 319 306 342 312 239 144 158 205 181 60 14 7 23 44 73 89 85 82 83 89 64 58 55 48 51 48 112 110 133 89 32 35 32 25 34 50 29 -15 -39 -5
277 278 242 270 249 223 255 320 193 206 131 181 224 10 8 -10 2 23 28 27 38 54 35 28 46 93 95 60 75 91 82 92 64 59 66 51 28 39 -2 12 17 -6 18 12
189 202 202 210 222 166 133 92 55 14 -8 64 91 17 -36 -17 -6 -3 7 10 19 40 44 52 75 82 119 122 156 174 61 26 23 72 104 59 50 23 20 36 28 28 37 8
210 176 179 119 61 69 66 87 30 -29 -26 -6 17 -15 -16 -4 5 11 17 36 37 32 48 45 48 48 110 84 81 30 26 35 98 94 75 58 57 77 64 41 31 30 22 22
-2 -24 -32 -37 17 16 -32 34 15 -27 -17 0 7 29 9 11 16 26 25 45 44 40 55 52 78 65 73 50 59 49 36 83 92 115 91 76 89 71 43 39 29 26 25 51
-68 -68 -22 67 24 -20 -3 0 4 22 9 15 27 22 26 36 29 31 54 49 48 48 41 80 83 93 107 54 59 55 86 104 113 111 93 67 52 51 49 38 35 42 83 70
-21 54 44 -26 -16 26 29 16 18 16 32 29 30 34 54 20 66 51 44 54 51 60 48 87 75 61 37 11 142 183 134 115 103 88 70 58 59 60 57 67 94 95 87 74
23 -14 -1 27 37 38 31 26 35 41 47 35 59 53 54 38 64 77 65 75 97 65 113 104 119 93 126 231 358 305 194 130 111 83 66 54 70 91 103 108 78 62 47 47
76 52 28 32 25 40 47 54 44 54 42 39 46 30 42 50 42 42 54 50 47 97 97 104 97 105 144 160 107 74 51 21 7 48 57 60 57 72 89 75 62 68 69 76
27 18 12 9 5 21 33 45 53 59 59 60 58 57 62 53 65 57 61 59 84 96 101 91 101 114 112 68 -2 -43 -35 7 20 51 56 71 98 92 118 121 115 123 129 113
-3 -15 2 7 16 31 57 66 79 96 90 75 70 60 75 69 83 72 73 80 97 131 99 93 88 95 47 74 75 69 57 51 30 49 74 91 116 126 121 114 102 107 107 115
-14 -7 12 21 50 24 14 22 31 55 60 59 74 98 101 76 88 113 105 161 167 168 113 88 72 72 64 68 91 85 70 72 82 97 111 117 113 95 88 85 88 102 99 131
-6 0 1 20 27 27 25 36 60 64 87 118 119 113 77 119 125 146 175 242 185 123 89 75 81 75 82 80 88 100 94 90 98 111 112 108 101 107 111 129 112 109 113 124

GFSNW_con_3kmhel_216.txt.gz
Helicity
240 193 199 217 227 235 233 313 286 199 219 296 296 339 320 300 195 167 179 221 221 193 160 131 150 179 123 253 231 184 229 198 226 184 212 327 302 270 312 301 370 456 501 514
231 203 182 223 253 255 409 364 379 256 255 320 352 347 342 312 258 206 146 222 239 169 174 173 138 143 262 268 228 201 196 188 195 119 183 176 247 303 311 413 432 427 453 602
281 176 213 231 255 255 451 448 332 403 302 357 330 373 339 333 261 256 331 315 382 329 279 322 266 244 210 276 293 326 314 315 290 285 203 246 229 355 392 358 454 481 527 376
150 228 205 264 244 277 382 416 336 334 304 377 331 252 250 314 285 288 268 359 372 398 275 279 292 196 275 268 265 312 256 260 260 238 220 249 265 292 294 351 378 414 318 274
232 147 219 249 262 234 313 447 465 439 293 291 194 371 334 311 312 325 304 432 302 262 291 247 201 231 236 215 272 241 264 252 221 203 194 257 330 316 228 223 206 243 237 279
18 125 186 232 284 356 397 509 551 422 333 421 382 406 404 352 359 269 312 200 302 258 183 257 261 246 255 254 241 223 237 244 255 270 359 293 291 229 287 326 267 232 266 149
172 153 232 275 278 307 589 569 636 603 468 477 482 391 297 302 285 247 271 298 249 209 255 256 230 228 224 224 225 245 276 296 322 382 289 325 319 335 266 251 160 128 149 117
30 118 195 301 184 209 519 470 575 546 398 477 434 396 385 357 405 403 332 285 207 196 238 237 211 189 192 197 206 205 247 372 366 380 366 409 310 276 197 174 166 86 104 21
75 113 172 172 220 127 567 521 518 585 662 495 449 487 350 394 373 360 291 283 256 273 237 227 213 223 195 194 262 332 310 307 391 435 399 367 241 104 89 65 165 21 27 16
71 99 168 160 167 291 489 538 617 727 611 457 392 321 265 348 347 293 317 292 277 268 287 269 263 274 307 269 293 292 357 337 306 301 309 213 105 113 84 216 68 19 97 99
69 118 155 139 193 330 397 427 617 484 598 521 429 288 272 281 290 267 259 313 275 300 295 271 266 281 271 290 299 274 287 287 221 270 268 162 84 110 77 60 72 96 130 145
97 185 189 215 389 598 625 629 526 598 522 350 297 276 207 180 162 209 250 256 211 202 269 263 266 276 265 235 229 167 193 141 160 112 61 69 113 87 89 114 106 124 122 88
217 228 310 509 546 649 610 541 387 558 457 358 371 359 293 179 158 132 228 175 148 182 191 220 247 234 195 199 144 136 73 89 88 101 44 35 66 63 75 72 103 80 93 65
311 417 510 446 402 350 373 322 329 283 230 253 273 241 297 203 117 109 114 154 188 179 160 174 167 165 112 107 52 73 84 96 105 104 92 67 58 70 55 77 77 17 99 75
380 362 338 318 340 381 453 353 305 219 131 152 277 283 258 175 187 224 189 165 158 139 133 116 97 93 87 43 55 84 149 114 184 155 84 101 55 50 74 76 52 43 40 41
348 316 316 243 224 249 346 302 240 174 177 314 275 198 207 190 189 193 166 123 79 61 58 49 38 54 65 63 78 77 70 101 111 108 72 113 74 50 78 75 57 37 44 52
319 274 224 138 153 197 172 107 166 126 110 191 251 253 200 109 97 90 76 60 55 57 64 69 87 86 121 135 145 111 58 66 67 71 89 57 84 88 64 60 49 52 54 53
315 363 342 301 258 230 316 284 130 84 178 202 217 221 139 46 65 72 47 62 73 77 90 102 100 119 127 115 55 100 59 53 50 65 105 73 87 83 66 83 79 56 42 55
347 335 305 319 304 253 206 143 112 65 108 172 109 109 93 35 58 51 63 70 80 79 102 113 141 131 109 97 150 85 72 92 66 78 112 119 116 85 62 61 54 61 68 60
332 321 272 234 186 112 61 90 73 70 55 29 82 38 78 54 61 64 73 74 88 114 95 123 133 128 91 90 75 64 57 84 128 176 158 123 108 61 52 67 93 95 102 102
294 210 214 170 27 67 52 60 83 49 64 37 52 54 73 37 73 69 61 83 83 134 86 115 108 82 77 105 57 43 71 101 111 92 84 64 49 44 44 45 48 45 61 85
132 213 93 23 29 28 53 67 33 47 40 37 65 68 63 51 56 84 61 106 106 115 113 127 122 86 104 68 46 39 68 82 35 -3 -18 6 35 48 53 65 80 111 144 149
171 137 45 11 21 67 50 45 40 38 13 33 56 71 49 46 55 87 91 109 110 127 141 152 127 96 91 81 75 77 94 65 26 71 120 124 105 97 121 104 106 134 111 84
58 24 41 21 12 1 -13 6 33 20 27 73 77 67 53 55 80 83 115 100 136 172 136 144 128 111 100 102 113 122 106 112 124 124 105 97 115 92 68 77 65 18 12 13
1 -5 -1 -13 -10 26 36 41 71 80 48 59 65 64 67 78 99 83 97 113 111 134 151 192 167 137 134 116 118 118 110 102 104 133 137 123 121 122 123 120 108 106 101 90
-10 -5 11 11 60 41 49 86 98 36 44 48 47 63 82 84 90 105 104 136 123 170 194 174 142 125 110 109 135 123 137 141 189 223 198 179 166 152 140 136 141 152 127 121
25 26 33 10 26 32 31 41 38 23 41 56 64 74 70 83 91 76 118 129 165 168 167 155 142 139 129 129 146 185 194 216 211 215 215 187 154 128 159 185 218 200 178 151

GFSNW_con_3kmhel_219.txt.gz
Helicity
44 135 213 189 243 247 251 363 346 211 305 287 319 283 281 262 224 258 234 197 157 156 109 104 104 122 90 136 145 148 207 175 173 115 146 161 144 117 111 215 276 378 378 424
27 291 211 227 267 262 424 369 387 261 311 328 307 366 279 278 287 258 223 168 153 124 151 118 61 115 183 306 263 168 201 274 236 158 150 193 251 266 285 331 342 416 385 503
95 213 162 264 292 253 469 489 435 415 319 377 268 346 304 311 309 288 286 237 271 231 221 196 167 200 210 290 291 291 291 340 296 284 195 218 250 250 342 374 382 282 422 293
179 298 182 191 257 319 547 505 422 475 375 395 393 267 248 272 290 291 273 273 267 280 191 217 281 330 312 309 313 323 289 314 292 230 178 225 249 262 280 312 275 350 278 349
224 138 154 136 267 325 404 490 488 643 405 256 364 350 319 285 263 287 254 248 198 188 216 279 248 272 266 262 263 275 299 308 264 236 197 220 245 248 215 163 171 204 173 232
120 158 83 174 181 346 430 530 566 449 369 442 338 278 238 262 286 261 281 195 242 230 263 310 309 321 309 228 209 216 256 268 264 260 252 196 158 147 86 208 189 190 223 231
151 185 140 153 180 353 491 499 528 475 502 320 359 307 289 287 237 242 275 308 325 334 395 379 288 284 243 216 232 239 280 298 279 327 224 231 301 234 224 212 240 173 178 152
165 188 222 126 168 122 589 474 576 513 418 395 439 392 418 459 437 493 466 440 389 356 354 282 285 248 227 230 240 269 319 380 331 312 253 288 307 309 207 197 146 109 79 20
197 114 113 181 181 99 371 449 556 482 366 327 380 449 479 478 580 493 540 418 439 442 329 262 254 231 241 237 261 259 298 352 340 356 287 292 282 140 97 119 133 53 17 -25
213 233 124 142 160 157 436 638 598 579 478 514 461 491 470 529 613 463 384 374 373 289 295 286 281 280 296 259 271 274 331 330 319 346 331 257 135 124 74 163 104 33 8 12
83 228 210 106 147 169 466 644 788 608 636 517 533 486 546 665 545 376 339 407 303 302 286 245 247 270 259 289 322 270 269 274 301 320 294 185 104 133 112 54 22 30 15 36
75 74 169 80 142 193 393 432 606 666 661 420 569 477 392 279 278 394 258 251 190 208 257 278 261 279 267 256 252 259 254 226 261 192 180 87 58 93 46 55 50 27 41 37
-103 -19 103 171 199 366 456 481 482 564 633 668 562 616 540 279 256 199 242 223 182 211 224 232 250 256 227 216 177 195 174 143 160 172 60 50 77 96 72 59 56 47 47 50
-19 -16 149 317 423 461 546 564 549 531 473 407 440 357 302 262 174 150 146 189 212 223 205 212 213 202 129 143 150 133 131 122 107 113 81 110 67 59 57 62 81 78 60 59
9 281 458 554 554 613 734 698 627 495 388 290 460 350 360 268 200 242 212 217 211 196 180 157 147 129 128 119 92 112 185 184 172 124 82 109 92 91 89 71 71 70 63 55
352 464 532 467 522 521 459 342 376 256 271 214 251 268 318 305 266 270 235 202 156 106 98 108 79 73 86 83 74 33 55 81 97 103 100 98 88 85 75 71 57 68 67 58
315 331 408 421 424 407 207 108 41 66 176 214 262 266 210 173 160 164 153 113 78 67 73 89 100 95 109 125 129 103 76 76 54 53 80 88 73 111 97 69 62 70 72 69
339 306 291 238 193 185 214 213 59 65 141 148 157 182 203 134 138 97 51 61 68 90 89 88 113 115 140 123 80 75 78 89 57 68 96 68 64 77 95 84 80 68 56 62
251 259 198 259 351 306 172 127 70 51 89 108 131 167 154 40 61 42 53 56 91 75 104 124 120 117 106 75 91 87 107 100 87 75 121 141 136 130 101 77 57 54 62 81
277 303 359 297 197 87 41 150 153 151 110 69 133 47 89 26 46 61 64 75 98 109 96 116 91 77 53 77 77 68 79 78 60 120 170 144 97 56 79 60 45 40 32 47
312 315 242 157 76 135 143 151 172 104 109 65 60 37 89 22 69 82 60 77 84 97 73 72 58 53 66 75 85 75 69 98 97 100 97 88 60 18 -1 27 59 68 69 78
191 177 103 124 188 159 108 127 39 57 62 51 68 81 65 58 46 69 64 90 78 75 109 84 67 61 76 66 72 69 78 108 123 127 123 93 81 106 121 119 117 112 104 110
258 267 219 140 62 74 56 58 74 69 45 50 46 67 39 39 58 76 67 81 82 110 71 71 73 84 83 85 88 91 93 122 133 143 148 146 137 119 124 112 85 80 29 -3
183 189 128 91 48 59 56 63 44 5 9 74 71 78 43 47 60 58 75 82 96 73 70 83 131 129 108 117 118 118 97 95 108 133 203 230 192 162 165 150 124 106 100 85
100 72 89 83 39 49 33 34 70 67 73 86 82 61 41 50 59 42 75 73 65 82 97 141 146 132 130 129 143 166 192 210 216 239 237 206 206 187 156 136 130 139 119 116
76 30 38 -25 64 52 59 106 108 68 63 54 14 27 41 34 56 62 55 82 77 97 130 147 145 165 187 193 184 203 208 221 231 220 206 192 180 167 153 127 131 118 146 156
8 -1 8 -18 35 32 21 22 33 -3 8 18 24 42 34 55 46 50 62 74 94 117 146 151 163 178 197 202 205 215 215 199 202 198 179 148 118 108 127 127 119 107 99 94

GFSNW_con_3kmhel_222.txt.gz
Helicity
55 -9 133 64 179 235 324 404 336 246 303 319 334 270 276 229 189 270 250 180 128 127 113 138 132 74 17 65 69 46 107 128 132 127 205 174 112 104 105 250 216 291 318 261
55 173 50 91 170 233 441 426 420 288 383 399 366 378 362 242 204 208 189 179 159 123 131 163 37 62 129 130 117 110 165 122 97 76 126 177 188 157 118 274 370 324 297 423
-18 233 133 201 198 205 416 535 486 412 372 370 242 425 340 249 255 223 220 220 263 224 182 156 149 133 100 180 242 306 304 303 261 180 194 246 294 261 271 298 380 225 349 187
-11 136 243 121 238 225 435 504 442 477 447 457 307 261 257 236 272 271 251 236 196 212 223 204 200 82 129 216 307 319 246 272 309 293 248 202 186 232 267 320 235 368 244 299
43 -37 225 200 242 174 383 492 458 569 393 377 350 296 326 227 253 301 237 206 158 138 231 210 105 121 144 222 312 286 334 323 312 240 170 191 223 228 197 201 162 185 168 196
74 -21 207 173 184 333 477 400 453 322 336 344 301 360 277 256 239 206 163 146 168 214 141 231 277 257 291 317 301 229 290 318 285 228 307 252 189 161 74 93 200 200 191 200
23 -4 157 115 165 329 603 481 495 599 558 356 215 202 258 236 179 186 234 225 226 374 381 386 386 423 385 358 266 270 330 317 316 319 275 252 394 319 273 221 215 132 121 102
-26 52 254 132 146 169 715 513 524 501 452 325 270 256 149 102 160 193 281 380 372 374 410 351 304 212 236 290 323 350 301 329 333 324 291 311 219 300 251 203 164 123 109 71
4 248 124 170 172 78 291 317 465 460 384 323 315 375 290 395 453 524 499 545 515 539 542 348 168 178 215 217 266 207 330 310 312 423 355 376 442 311 216 178 163 145 134 63
84 189 71 151 162 234 268 335 513 399 417 505 422 451 402 496 523 502 581 604 588 566 368 290 301 308 304 269 260 245 301 330 286 288 359 349 360 273 162 244 251 122 48 40
154 194 155 170 156 92 239 291 429 427 621 474 544 541 488 622 560 490 461 598 477 406 288 300 356 269 234 264 274 245 206 238 329 314 375 233 198 153 173 209 95 54 44 48
68 205 83 197 136 142 314 348 364 640 580 460 554 515 630 554 538 590 471 393 339 249 328 322 271 259 213 225 236 224 248 290 350 226 212 223 84 105 33 108 74 59 59 46
59 330 187 107 171 244 360 391 489 588 759 872 672 662 588 515 438 448 440 356 324 336 290 238 207 207 171 202 211 209 201 201 197 175 62 61 78 59 50 63 54 44 54 54
20 53 139 152 192 310 440 497 535 606 715 645 636 517 522 491 349 317 289 302 204 183 168 190 195 199 142 195 196 131 160 131 88 77 17 51 48 55 56 61 78 91 81 67
50 83 116 231 349 470 659 671 548 486 346 313 745 591 529 409 349 285 186 164 181 154 168 171 182 162 130 118 98 84 119 92 135 116 94 90 77 91 91 100 100 100 84 69
33 51 125 281 302 340 517 353 453 519 491 288 347 485 520 354 255 240 206 154 170 138 152 157 103 73 67 74 62 54 56 54 66 77 120 96 65 71 67 92 88 73 82 64
72 102 204 317 369 407 434 215 267 343 414 381 375 363 332 264 219 209 195 153 138 117 93 83 70 74 82 83 104 110 100 108 90 79 95 86 66 97 73 84 77 83 74 69
220 388 397 394 404 471 407 371 345 369 312 313 265 176 208 167 171 155 131 129 82 74 64 55 74 80 74 73 57 72 81 81 74 71 80 83 76 88 90 102 110 103 98 88
503 446 391 525 431 378 232 152 197 188 139 100 122 162 182 115 156 124 90 55 91 51 73 67 52 70 70 89 85 89 105 85 56 62 78 99 121 129 135 120 63 64 62 60
476 567 395 353 227 39 52 204 209 171 127 99 158 168 205 118 114 100 79 58 92 75 64 51 49 66 50 52 58 69 92 105 119 121 119 110 116 148 144 107 66 89 105 104
547 350 320 163 101 197 191 158 146 115 134 120 144 71 147 68 93 114 41 62 60 71 72 62 60 64 73 61 68 80 91 92 111 120 116 120 146 183 183 134 114 125 143 147
210 200 209 190 210 139 95 122 97 105 93 127 83 108 105 70 33 52 40 65 52 78 52 51 65 81 74 76 84 84 81 86 101 109 108 122 120 151 160 193 192 156 117 87
297 298 210 83 65 75 65 59 79 64 90 56 48 95 55 27 21 46 37 54 70 60 48 57 74 99 88 96 110 112 113 116 111 114 170 295 332 311 238 155 111 154 166 159
213 157 121 126 96 62 78 81 80 57 55 84 59 83 24 23 40 25 53 57 59 55 59 69 101 125 119 118 144 164 210 187 195 225 211 201 158 127 110 144 130 149 157 131
187 142 124 101 110 141 99 91 105 70 62 67 55 47 33 43 34 28 48 51 52 47 76 109 132 140 150 196 229 238 234 217 217 234 245 223 190 158 142 110 95 116 95 108
169 105 143 52 90 123 74 71 128 39 45 44 56 24 19 31 35 32 31 56 53 77 99 135 147 164 194 224 242 220 214 212 201 195 167 162 140 112 97 100 92 81 79 77
161 93 91 51 116 78 67 63 58 89 58 3 24 34 20 22 12 34 38 49 82 111 126 133 150 172 202 206 202 186 183 173 150 130 130 120 89 75 90 90 82 69 64 79